Weather in Pokrovka

Russia / Sakha (Yakutia) Republic     60°45′31″N   131°46′54″E
temp.,
°C
wind,
m/s
gust,
m/s
humid.,
%
clouds,
%
prec.,
mm/h
press.,
hPa
HPBL,
m
17 may, mon
mon1700:00+5se4127463 0.0 997455
03:00+4se4117396 0.0 996452
06:00+5se51263100 0.0 995649
09:00+6se4756100 0.0 994935
12:00+5ssw2488100 1.4 995658
15:00+1wnw41097100 5.3 996537
18:00+2wnw41197100 2.8 998709
21:00+1wnw41090100 3.6 999673
18 may, tue
tue1800:00−2wsw229557 0.0 100030
03:00−4sw219510 0.0 100116
06:000wsw24805 0.0 1003278
09:00+4wsw355157 0.1 10031683
12:00+6wsw2437100 0.1 10022174
15:00+7wsw233598 0.1 10022102
18:00+7nw2236100 0.0 10011941
21:00+1ne2771100 0.0 1002137
19 may, wed
wed1900:000nne2277100 0.0 100222
03:00−2n2283100 0.0 100225
06:00+1n2670100 0.0 1001252
09:00+5nne4651100 0.0 10011097
12:00+7n5642100 0.0 10001838
15:00+8n5636100 0.0 10002109
18:00+7nnw4541100 0.0 10021878
21:00+3nw1158100 0.0 100311
20 may, thu
thu2000:00+1wsw1162100 0.0 100412
03:000wsw2368100 0.0 100563
06:00+3wsw2861100 0.0 1005306
09:00+8wnw583075 0.0 10041695
12:00+10wnw562474 0.0 10042336
15:00+11wnw462398 0.0 10043172
18:00+11nw352853 0.0 10052685
21:00+4wnw2247100 0.0 100713
21 may, fri
fri2100:00+2wsw225583 0.0 100917
03:000wsw116543 0.0 101012
06:00+4w255337 0.0 1011291
09:00+10wnw46395 0.0 10111943
12:00+12nw4532100 0.0 10112723
15:00+12nw343180 0.0 10112354
18:00+12nw232999 0.0 10112253
21:00+6ssw1148100 0.0 101210